Location: Hanover
(52.3667°N, 9.7167°E)
Time: 15:10:02
(UTC+02:00)

Envisat - Visible Passes

Search period start: 20 September 2024 00:00
Search period end: 30 September 2024 00:00
Orbit: 762 x 764 km, 98.3° (Epoch: 19 September)

Date Brightness Start Highest point End Pass type
(mag) Time Alt. Az. Time Alt. Az. Time Alt. Az.
20 Sep 5.6 03:01:10 10° ENE 03:03:21 13° E 03:05:31 10° ESE visible
20 Sep 3.1 04:38:06 10° NNE 04:43:13 75° ESE 04:45:57 28° S visible
20 Sep 4.3 06:17:53 10° N 06:21:41 22° NW 06:25:29 10° WSW visible
21 Sep 4.2 04:00:51 10° NNE 04:05:35 38° E 04:07:57 24° SSE visible
21 Sep 3.6 05:39:54 10° N 05:44:35 38° WNW 05:48:05 16° SW visible
22 Sep 5.2 03:24:05 10° NE 03:27:46 20° E 03:29:56 15° ESE visible
22 Sep 2.9 05:02:11 10° NNE 05:07:17 73° WNW 05:10:05 27° SSW visible
23 Sep 3.4 04:24:44 10° NNE 04:29:46 59° E 04:32:04 31° SSE visible
23 Sep 4.1 06:04:15 10° N 06:08:25 26° WNW 06:12:13 12° WSW visible
24 Sep 4.6 03:47:36 10° NNE 03:52:05 30° E 03:54:03 23° SE visible
24 Sep 3.3 05:26:23 10° N 05:31:14 47° WNW 05:34:12 22° SW visible
25 Sep 5.4 03:11:10 10° NE 03:14:10 16° E 03:16:02 13° ESE visible
25 Sep 2.9 04:48:45 10° NNE 04:53:53 90° SSE 04:56:11 34° SSW visible
25 Sep 4.5 06:28:46 10° NNW 06:32:12 19° NW 06:35:37 10° W visible
26 Sep 3.8 04:11:24 10° NNE 04:16:18 46° E 04:18:10 32° SSE visible
26 Sep 3.8 05:50:39 10° N 05:55:08 32° WNW 05:58:18 17° WSW visible
27 Sep 4.9 03:34:26 10° NE 03:38:32 24° E 03:40:08 21° ESE visible
27 Sep 3.0 05:12:52 10° N 05:17:53 60° WNW 05:20:17 30° SW visible
28 Sep 5.6 02:58:34 10° ENE 03:00:32 12° E 03:02:07 11° ESE visible
28 Sep 3.1 04:35:21 10° NNE 04:40:26 72° ESE 04:42:16 40° S visible
28 Sep 4.3 06:15:04 10° N 06:18:56 22° WNW 06:22:24 12° WSW visible
29 Sep 4.2 03:58:05 10° NNE 04:02:48 36° E 04:04:14 30° SE visible
29 Sep 3.5 05:37:06 10° N 05:41:49 40° WNW 05:44:23 23° WSW visible
